DW5247 Lemo FI current weather conditions

sailwx.info

Wind from 180 at 0 knots gusting 3

Air temperature 15.6° C
Dewpoint 11.7° C

Last reported at 2015-Aug-03 20:47 UTC.
Time now 2015-Aug-03 21:18 UTC

Location: N 62°41' E 029°49'.
View on Google Maps.

See reports from other nearby stations

  
Tides and Currents Weather Stations Pressure Air Temp Water Temp Dewpoint Dewpoint Depression Visibility Wind Speed Wind Dir Waves Ship Positions
date/time (UTC)wind fromknots sea level pressurealtimeterstation pressurevisibilityair tempwater tempwave heightnotes
2015-Aug-03 20:47 180 0 gusting 3 15.6
2015-Aug-03 20:42 180 1 gusting 4 15.6
2015-Aug-03 20:37 113 1 gusting 4 15.6
2015-Aug-03 20:32 180 1 gusting 4 15.6
2015-Aug-03 20:27 158 1 gusting 4 15.6
2015-Aug-03 20:22 158 1 gusting 4 15.6
2015-Aug-03 20:17 135 1 gusting 4 15.6
2015-Aug-03 20:12 158 1 gusting 4 15.6
2015-Aug-03 20:07 158 1 gusting 4 15.6
2015-Aug-03 20:02 135 1 gusting 4 15.6
2015-Aug-03 19:57 180 1 gusting 3 15.6
2015-Aug-03 19:52 180 1 gusting 4 15.6
2015-Aug-03 19:47 203 1 gusting 4 16.1
2015-Aug-03 19:42 135 1 gusting 4 15.6
2015-Aug-03 19:37 180 1 gusting 3 16.1
2015-Aug-03 19:32 135 1 gusting 2 16.1
2015-Aug-03 19:27 180 1 gusting 2 16.1
2015-Aug-03 19:22 158 1 gusting 2 16.1
2015-Aug-03 19:17 135 1 gusting 2 16.1
2015-Aug-03 19:12 135 0 gusting 2 16.1
2015-Aug-03 19:07 158 0 gusting 2 16.1
2015-Aug-03 19:02 203 1 gusting 3 16.7
2015-Aug-03 18:57 180 1 gusting 3 16.7
2015-Aug-03 18:52 158 1 gusting 3 16.7
2015-Aug-03 18:47 113 2 gusting 7 16.7
2015-Aug-03 18:42 203 2 gusting 7 16.7
2015-Aug-03 18:37 023 3 gusting 7 16.7
2015-Aug-03 18:32 180 3 gusting 5 17.2
2015-Aug-03 18:27 180 2 gusting 5 17.2
2015-Aug-03 18:22 248 3 gusting 5 17.2
2015-Aug-03 18:17 180 3 gusting 5 17.2
2015-Aug-03 18:12 158 2 gusting 5 17.2
2015-Aug-03 18:07 180 3 gusting 5 17.8
2015-Aug-03 18:02 158 3 gusting 6 17.8
2015-Aug-03 17:57 158 3 gusting 6 17.8
2015-Aug-03 17:52 180 3 gusting 8 17.8
2015-Aug-03 17:47 158 4 gusting 8 17.8
2015-Aug-03 17:42 135 3 gusting 6 17.8
2015-Aug-03 17:37 180 2 gusting 6 17.8
2015-Aug-03 17:32 135 3 gusting 6 18.3
2015-Aug-03 17:27 203 4 gusting 6 18.3
2015-Aug-03 17:22 158 3 gusting 6 18.3
2015-Aug-03 17:17 203 3 gusting 6 18.3
2015-Aug-03 17:12 180 3 gusting 4 18.3
2015-Aug-03 17:07 180 2 gusting 6 18.3
2015-Aug-03 17:02 158 2 gusting 6 18.3
2015-Aug-03 16:57 180 2 gusting 6 18.3
2015-Aug-03 16:52 203 3 gusting 6 18.3
2015-Aug-03 16:47 180 2 gusting 6 18.3
2015-Aug-03 16:42 158 3 gusting 6 18.3
2015-Aug-03 16:37 203 4 gusting 6 18.9
2015-Aug-03 16:32 180 4 gusting 6 18.9
2015-Aug-03 16:27 180 4 gusting 6 18.9
2015-Aug-03 16:22 158 3 gusting 6 18.9
2015-Aug-03 16:17 158 4 gusting 6 18.9
2015-Aug-03 16:12 180 4 gusting 5 18.9
2015-Aug-03 16:07 135 3 gusting 7 18.9
2015-Aug-03 16:02 158 3 gusting 7 18.9
2015-Aug-03 15:57 203 2 gusting 7 18.9
2015-Aug-03 15:52 180 3 gusting 9 18.9
2015-Aug-03 15:47 158 3 gusting 9 18.9
2015-Aug-03 15:42 158 5 gusting 11 19.4
2015-Aug-03 15:37 180 4 gusting 13 19.4
2015-Aug-03 15:32 135 5 gusting 13 19.4
2015-Aug-03 15:27 180 5 gusting 13 19.4
2015-Aug-03 15:22 158 4 gusting 7 19.4
2015-Aug-03 15:17 158 5 gusting 8 19.4
2015-Aug-03 15:12 180 6 gusting 8 19.4
2015-Aug-03 15:07 068 4 gusting 8 19.4
2015-Aug-03 15:02 180 5 gusting 11 19.4
2015-Aug-03 14:57 158 5 gusting 11 19.4
2015-Aug-03 14:52 158 4 gusting 9 19.4
2015-Aug-03 14:47 158 4 gusting 9 19.4
2015-Aug-03 14:42 180 5 gusting 10 19.4
2015-Aug-03 14:37 090 6 gusting 10 20.0
2015-Aug-03 14:32 135 6 gusting 10 20.0
2015-Aug-03 14:27 180 5 gusting 7 20.0
2015-Aug-03 14:22 068 5 gusting 9 20.0
2015-Aug-03 14:17 158 6 gusting 10 20.0
2015-Aug-03 14:12 113 6 gusting 10 20.0
2015-Aug-03 14:07 158 6 gusting 10 20.0
2015-Aug-03 14:02 270 6 gusting 10 20.0
2015-Aug-03 13:57 158 6 gusting 11 20.0
2015-Aug-03 13:52 203 6 gusting 13 20.0
2015-Aug-03 13:47 158 6 gusting 13 20.0
2015-Aug-03 13:42 180 7 gusting 13 20.0
2015-Aug-03 13:37 113 7 gusting 13 20.0
2015-Aug-03 13:32 180 6 gusting 12 19.4
2015-Aug-03 13:27 180 6 gusting 6 19.4
2015-Aug-03 13:22 270 6 gusting 14 19.4
2015-Aug-03 13:17 293 6 gusting 14 19.4
2015-Aug-03 13:12 135 6 gusting 14 19.4
2015-Aug-03 13:07 203 5 gusting 13 19.4
2015-Aug-03 13:02 158 5 gusting 13 19.4
2015-Aug-03 12:57 113 4 gusting 12 19.4
2015-Aug-03 12:52 135 4 gusting 13 19.4
2015-Aug-03 12:47 158 6 gusting 13 19.4
2015-Aug-03 12:42 135 6 gusting 18 19.4
2015-Aug-03 12:37 180 6 gusting 18 18.9
2015-Aug-03 12:32 135 6 gusting 18 18.9
2015-Aug-03 12:27 135 6 gusting 11 18.9
2015-Aug-03 12:22 158 6 gusting 11 18.9
2015-Aug-03 12:17 068 6 gusting 11 18.9
2015-Aug-03 12:12 180 5 gusting 12 18.9
2015-Aug-03 12:07 180 5 gusting 12 18.9
2015-Aug-03 12:02 180 5 gusting 12 18.9
2015-Aug-03 11:57 135 5 gusting 9 18.9
2015-Aug-03 11:52 135 6 gusting 9 18.9
2015-Aug-03 11:47 135 5 gusting 7 18.9
2015-Aug-03 11:42 158 4 gusting 7 18.9
2015-Aug-03 11:37 158 4 gusting 7 18.9
2015-Aug-03 11:32 090 4 gusting 7 18.3
2015-Aug-03 11:27 270 5 gusting 9 18.3
2015-Aug-03 11:22 158 4 gusting 9 18.9
2015-Aug-03 11:17 180 6 gusting 9 18.3
2015-Aug-03 11:12 158 6 gusting 9 18.3
2015-Aug-03 11:07 158 6 gusting 9 18.3
2015-Aug-03 11:02 158 6 gusting 7 18.3
2015-Aug-03 10:57 113 5 gusting 7 18.3
2015-Aug-03 10:52 135 4 gusting 7 18.3
2015-Aug-03 10:47 158 4 gusting 10 18.3
2015-Aug-03 10:42 270 5 gusting 10 17.8
2015-Aug-03 10:37 135 6 gusting 8 18.3
2015-Aug-03 10:32 135 4 gusting 7 17.8
2015-Aug-03 10:27 203 4 gusting 7 17.8
2015-Aug-03 10:22 158 5 gusting 9 17.8
2015-Aug-03 10:17 180 5 gusting 9 17.8
2015-Aug-03 10:12 180 5 gusting 9 17.8
2015-Aug-03 10:07 045 5 gusting 9 17.8
2015-Aug-03 10:02 113 5 gusting 7 17.2
2015-Aug-03 09:57 158 5 gusting 10 17.2
2015-Aug-03 09:52 113 5 gusting 10 17.2
2015-Aug-03 09:47 158 5 gusting 9 17.2
2015-Aug-03 09:42 113 5 gusting 8 17.2
2015-Aug-03 09:37 068 4 gusting 8 17.2
2015-Aug-03 09:32 158 4 gusting 8 17.2
2015-Aug-03 09:27 158 4 gusting 8 16.7
2015-Aug-03 09:22 158 5 gusting 6 16.7
2015-Aug-03 09:17 135 3 gusting 7 16.7
2015-Aug-03 09:12 203 2 gusting 8 16.7
2015-Aug-03 09:07 158 5 gusting 8 16.7
2015-Aug-03 09:02 158 5 gusting 8 16.7
2015-Aug-03 08:57 135 4 gusting 8 16.7
2015-Aug-03 08:52 180 3 gusting 8 16.7
2015-Aug-03 08:47 180 4 gusting 8 16.7
2015-Aug-03 08:42 135 5 gusting 12 16.7
2015-Aug-03 08:37 225 5 gusting 12 16.7
2015-Aug-03 08:32 180 5 gusting 7 16.7
2015-Aug-03 08:27 158 4 gusting 7 16.7
2015-Aug-03 08:22 180 4 gusting 6 16.7
2015-Aug-03 08:17 158 5 gusting 6 16.7
2015-Aug-03 08:12 135 4 gusting 6 16.7
2015-Aug-03 08:07 180 3 gusting 6 16.1
2015-Aug-03 08:02 135 3 gusting 6 16.1
2015-Aug-03 07:57 180 4 gusting 6 16.1
2015-Aug-03 07:52 180 4 gusting 7 16.1
2015-Aug-03 07:47 180 4 gusting 7 16.1
2015-Aug-03 07:42 135 4 gusting 8 16.1
2015-Aug-03 07:37 203 4 gusting 8 16.1
2015-Aug-03 07:32 068 5 gusting 9 16.1
2015-Aug-03 07:27 158 5 gusting 9 16.1
2015-Aug-03 07:22 180 5 gusting 9 16.1
2015-Aug-03 07:17 225 4 gusting 7 16.1
2015-Aug-03 07:12 135 3 gusting 7 16.1
2015-Aug-03 07:07 203 2 gusting 6 16.1
2015-Aug-03 07:02 135 2 gusting 7 16.1
2015-Aug-03 06:57 158 3 gusting 7 16.1
2015-Aug-03 06:52 180 5 gusting 7 15.6
2015-Aug-03 06:47 135 5 gusting 7 15.6
2015-Aug-03 06:42 158 4 gusting 8 15.6
2015-Aug-03 06:37 180 4 gusting 8 15.6
2015-Aug-03 06:32 180 5 gusting 8 15.6
2015-Aug-03 06:27 180 5 gusting 8 15.6
2015-Aug-03 06:22 158 4 gusting 6 15.6
2015-Aug-03 06:17 135 4 gusting 8 15.6
2015-Aug-03 06:12 180 4 gusting 8 15.6
2015-Aug-03 06:07 180 4 gusting 8 15.6
2015-Aug-03 06:02 158 3 gusting 7 15.6
2015-Aug-03 05:57 158 2 gusting 7 15.6
2015-Aug-03 05:52 203 3 gusting 7 15.6
2015-Aug-03 05:47 135 2 gusting 6 15.0
2015-Aug-03 05:42 180 2 gusting 7 15.0
2015-Aug-03 05:37 113 3 gusting 7 15.0
2015-Aug-03 05:32 158 4 gusting 9 15.0
2015-Aug-03 05:27 135 4 gusting 9 14.4
2015-Aug-03 05:22 113 4 gusting 9 14.4
2015-Aug-03 05:17 158 3 gusting 6 14.4
2015-Aug-03 05:12 293 2 gusting 5 14.4
2015-Aug-03 05:07 090 2 gusting 4 13.9
2015-Aug-03 05:02 135 2 gusting 8 13.9
2015-Aug-03 04:57 135 3 gusting 8 13.9
2015-Aug-03 04:52 135 3 gusting 8 13.9
2015-Aug-03 04:47 203 3 gusting 7 13.3
2015-Aug-03 04:42 158 3 gusting 7 13.3
2015-Aug-03 04:37 135 4 gusting 6 13.3
2015-Aug-03 04:32 135 3 gusting 6 13.3
2015-Aug-03 04:27 180 2 gusting 6 12.8
2015-Aug-03 04:22 158 2 gusting 6 12.8
2015-Aug-03 04:17 180 2 gusting 5 12.8
2015-Aug-03 04:12 113 0 gusting 2 12.8
2015-Aug-03 04:07 158 12.8
2015-Aug-03 04:02 113 0 gusting 3 12.8
2015-Aug-03 03:57 135 0 gusting 4 12.2
2015-Aug-03 03:52 135 0 gusting 4 12.2
2015-Aug-03 03:47 158 1 gusting 5 12.2
2015-Aug-03 03:42 158 2 gusting 5 12.2
2015-Aug-03 03:37 135 2 gusting 5 12.2
2015-Aug-03 03:32 135 2 gusting 3 11.7
2015-Aug-03 03:27 158 2 gusting 3 11.7
2015-Aug-03 03:22 158 1 gusting 3 11.7
2015-Aug-03 03:17 158 1 gusting 1 11.7
2015-Aug-03 03:12 135 1 gusting 1 11.1
2015-Aug-03 03:07 158 0 gusting 3 11.1
2015-Aug-03 03:02 158 0 gusting 3 11.1
2015-Aug-03 02:57 158 1 gusting 3 11.1
2015-Aug-03 02:52 158 1 gusting 3 11.1
2015-Aug-03 02:47 158 0 gusting 2 10.6
2015-Aug-03 02:42 135 0 gusting 2 10.6
2015-Aug-03 02:37 113 0 gusting 2 10.6
2015-Aug-03 02:32 158 0 gusting 2 10.6
2015-Aug-03 02:27 158 0 gusting 4 10.6
2015-Aug-03 02:22 090 1 gusting 5 11.1
2015-Aug-03 02:17 135 2 gusting 5 10.6
2015-Aug-03 02:12 180 2 gusting 5 10.6
2015-Aug-03 02:07 180 2 gusting 4 11.1
2015-Aug-03 02:02 158 1 gusting 2 10.6
2015-Aug-03 01:57 158 0 gusting 3 11.1
2015-Aug-03 01:52 158 0 gusting 3 11.1
2015-Aug-03 01:47 135 1 gusting 2 11.1
2015-Aug-03 01:42 180 0 gusting 1 11.1
2015-Aug-03 01:37 180 0 gusting 1 11.1
2015-Aug-03 01:32 158 11.1
2015-Aug-03 01:27 158 11.1
2015-Aug-03 01:22 135 11.1
2015-Aug-03 01:17 158 0 gusting 2 11.1
2015-Aug-03 01:12 158 0 gusting 2 11.7
2015-Aug-03 01:07 158 0 gusting 2 11.7
2015-Aug-03 01:02 158 0 gusting 2 11.7
2015-Aug-03 00:57 158 0 gusting 2 11.7
2015-Aug-03 00:52 180 0 gusting 2 11.7
2015-Aug-03 00:47 135 0 gusting 3 11.7
2015-Aug-03 00:42 135 0 gusting 3 11.7
2015-Aug-03 00:37 113 0 gusting 3 11.7
2015-Aug-03 00:32 158 1 gusting 2 11.7
2015-Aug-03 00:27 158 0 gusting 3 11.7
2015-Aug-03 00:22 180 0 gusting 3 11.7
2015-Aug-03 00:17 135 0 gusting 3 11.7
2015-Aug-03 00:12 158 0 gusting 2 11.7
2015-Aug-03 00:07 090 11.7
2015-Aug-03 00:02 090 11.7
2015-Aug-02 23:57 090 11.7
2015-Aug-02 23:52 068 11.7
2015-Aug-02 23:47 113 11.7
2015-Aug-02 23:42 135 11.7
2015-Aug-02 23:37 068 11.7
2015-Aug-02 23:32 113 0 gusting 6 11.7
2015-Aug-02 23:27 090 1 gusting 6 11.7
2015-Aug-02 23:22 338 1 gusting 3 11.7
2015-Aug-02 23:17 135 0 gusting 3 11.7
2015-Aug-02 23:12 113 1 gusting 3 11.7
2015-Aug-02 23:07 135 1 gusting 3 11.7
2015-Aug-02 23:02 135 1 gusting 3 11.7
2015-Aug-02 22:57 113 1 gusting 3 11.7
2015-Aug-02 22:52 180 1 gusting 3 11.7
2015-Aug-02 22:47 158 1 gusting 3 11.7
2015-Aug-02 22:42 158 1 gusting 3 12.2
2015-Aug-02 22:37 023 1 gusting 1 12.2
2015-Aug-02 22:32 090 0 gusting 1 12.2
2015-Aug-02 22:27 113 0 gusting 1 12.2
2015-Aug-02 22:22 090 0 gusting 1 12.2
2015-Aug-02 22:17 135 0 gusting 4 12.2
2015-Aug-02 22:12 113 0 gusting 4 12.2
2015-Aug-02 22:07 068 0 gusting 4 12.2
2015-Aug-02 22:02 113 0 gusting 1 12.2
2015-Aug-02 21:57 158 12.2
2015-Aug-02 21:52 135 12.2
2015-Aug-02 21:47 068 12.2
2015-Aug-02 21:42 113 12.8
2015-Aug-02 21:37 045 12.2
2015-Aug-02 21:32 135 0 gusting 1 12.8
2015-Aug-02 21:27 135 0 gusting 1 12.8
2015-Aug-02 21:22 203 12.8
2015-Aug-02 21:17 135 12.8
2015-Aug-02 21:12 068 12.8
2015-Aug-02 21:07 113 12.8
2015-Aug-02 20:57 158 0 gusting 2 12.8
2015-Aug-02 20:52 135 0 gusting 3 12.8
2015-Aug-02 20:47 090 0 gusting 3 12.8
2015-Aug-02 20:42 113 0 gusting 3 12.8
2015-Aug-02 20:37 180 0 gusting 3 12.8
2015-Aug-02 20:32 045 0 gusting 3 12.8
2015-Aug-02 20:27 135 0 gusting 2 12.8
2015-Aug-02 20:22 090 0 gusting 5 12.8
2015-Aug-02 20:17 068 1 gusting 5 12.8
2015-Aug-02 20:12 068 1 gusting 4 12.8
2015-Aug-02 20:07 113 1 gusting 4 12.8
2015-Aug-02 20:02 068 0 gusting 2 12.8
2015-Aug-02 19:57 023 0 gusting 1 12.8
2015-Aug-02 19:52 090 12.8
2015-Aug-02 19:47 135 12.8
2015-Aug-02 19:42 068 13.3
2015-Aug-02 19:37 090 13.3
2015-Aug-02 19:32 113 13.3
2015-Aug-02 19:27 113 13.3
2015-Aug-02 19:22 135 13.3
2015-Aug-02 19:17 113 13.3
2015-Aug-02 19:12 135 13.3
2015-Aug-02 19:07 113 13.9
2015-Aug-02 19:02 113 0 gusting 4 13.9
2015-Aug-02 18:57 068 0 gusting 4 13.9
2015-Aug-02 18:52 113 0 gusting 2 13.9
2015-Aug-02 18:47 090 0 gusting 2 13.9
2015-Aug-02 18:42 248 0 gusting 2 13.9
2015-Aug-02 18:37 113 0 gusting 2 13.9
2015-Aug-02 18:32 113 0 gusting 2 13.9
2015-Aug-02 18:27 113 0 gusting 4 14.4
2015-Aug-02 18:22 090 14.4
2015-Aug-02 18:17 068 0 gusting 3 14.4
2015-Aug-02 18:12 135 0 gusting 3 14.4
2015-Aug-02 18:07 135 0 gusting 3 14.4
2015-Aug-02 18:02 135 0 gusting 6 14.4
2015-Aug-02 17:57 068 1 gusting 6 14.4
2015-Aug-02 17:52 338 2 gusting 6 14.4
2015-Aug-02 17:47 135 2 gusting 10 14.4
2015-Aug-02 17:42 113 3 gusting 10 14.4
2015-Aug-02 17:37 068 2 gusting 10 14.4
2015-Aug-02 17:32 068 1 gusting 6 15.0
2015-Aug-02 17:27 135 1 gusting 4 15.0
2015-Aug-02 17:22 068 0 gusting 3 15.0
2015-Aug-02 17:17 023 0 gusting 3 15.6
2015-Aug-02 17:12 158 15.6
2015-Aug-02 17:07 135 0 gusting 2 15.6
2015-Aug-02 17:02 135 0 gusting 3 15.6
2015-Aug-02 16:57 135 0 gusting 3 16.1
2015-Aug-02 16:52 135 0 gusting 3 16.1
2015-Aug-02 16:47 090 0 gusting 3 16.7
2015-Aug-02 16:42 135 0 gusting 4 16.7
2015-Aug-02 16:37 113 1 gusting 6 16.7
2015-Aug-02 16:32 090 2 gusting 6 17.2
2015-Aug-02 16:27 180 2 gusting 10 17.8
2015-Aug-02 16:22 135 4 gusting 10 17.8
2015-Aug-02 16:17 113 5 gusting 10 18.3
2015-Aug-02 16:12 068 3 gusting 3 18.9
2015-Aug-02 16:07 090 0 gusting 5 18.9
2015-Aug-02 16:02 135 0 gusting 6 18.9
2015-Aug-02 15:57 090 2 gusting 6 19.4
2015-Aug-02 15:52 158 3 gusting 5 19.4
2015-Aug-02 15:47 135 3 gusting 5 19.4
2015-Aug-02 15:42 158 4 gusting 6 19.4
2015-Aug-02 15:37 180 5 gusting 7 19.4
2015-Aug-02 15:32 180 5 gusting 11 19.4
2015-Aug-02 15:27 068 6 gusting 11 20.0
2015-Aug-02 15:22 113 6 gusting 11 20.0
2015-Aug-02 15:17 135 7 gusting 11 20.0
2015-Aug-02 15:12 135 6 gusting 11 20.0
2015-Aug-02 15:07 135 5 gusting 11 20.0
2015-Aug-02 15:02 113 5 gusting 11 20.0
2015-Aug-02 14:57 180 5 gusting 7 20.0
2015-Aug-02 14:52 180 6 gusting 13 20.0
2015-Aug-02 14:47 135 6 gusting 13 20.0
2015-Aug-02 14:42 135 6 gusting 12 20.0
2015-Aug-02 14:37 180 6 gusting 10 20.0
2015-Aug-02 14:32 180 6 gusting 10 20.0
2015-Aug-02 14:27 135 6 gusting 16 20.0
2015-Aug-02 14:22 158 7 gusting 16 20.0
2015-Aug-02 14:17 158 7 gusting 15 20.0
2015-Aug-02 14:12 180 7 gusting 13 20.0
2015-Aug-02 14:07 113 6 gusting 14 20.0
2015-Aug-02 14:02 158 6 gusting 14 20.0
2015-Aug-02 13:57 113 7 gusting 14 19.4
2015-Aug-02 13:52 113 6 gusting 12 19.4
2015-Aug-02 13:47 135 6 gusting 11 19.4
2015-Aug-02 13:42 180 6 gusting 11 19.4
2015-Aug-02 13:37 113 6 gusting 11 19.4
2015-Aug-02 13:32 135 6 gusting 13 19.4
2015-Aug-02 13:27 180 7 gusting 13 19.4
2015-Aug-02 13:22 090 6 gusting 12 19.4
2015-Aug-02 13:17 158 6 gusting 10 19.4
2015-Aug-02 13:12 135 6 gusting 10 19.4
2015-Aug-02 13:07 180 6 gusting 11 19.4
2015-Aug-02 13:02 180 6 gusting 11 18.9
2015-Aug-02 12:57 068 6 gusting 11 18.9
2015-Aug-02 12:52 180 6 gusting 7 18.3
2015-Aug-02 12:47 158 5 gusting 10 18.3
2015-Aug-02 12:42 203 4 gusting 10 17.8
2015-Aug-02 12:37 113 4 gusting 10 17.8
2015-Aug-02 12:32 158 4 gusting 9 17.8
2015-Aug-02 12:27 135 4 gusting 7 17.8
2015-Aug-02 12:22 158 4 gusting 7 17.8
2015-Aug-02 12:17 180 4 gusting 7 17.8
2015-Aug-02 12:12 158 5 gusting 6 17.8
2015-Aug-02 12:07 135 4 gusting 6 17.2
2015-Aug-02 12:02 135 3 gusting 6 17.2
2015-Aug-02 11:57 135 2 gusting 8 17.2
2015-Aug-02 11:52 158 2 gusting 8 17.2
2015-Aug-02 11:47 135 2 gusting 8 17.2
2015-Aug-02 11:42 158 2 gusting 7 17.2
2015-Aug-02 11:37 135 2 gusting 7 17.2
2015-Aug-02 11:32 180 3 gusting 11 17.2
2015-Aug-02 11:27 180 4 gusting 11 17.2
2015-Aug-02 11:22 180 5 gusting 11 17.2
2015-Aug-02 11:17 158 5 gusting 9 16.7
2015-Aug-02 11:12 158 4 gusting 9 16.7
2015-Aug-02 11:07 180 3 gusting 9 16.7
2015-Aug-02 11:02 113 4 gusting 9 16.7
2015-Aug-02 10:57 180 5 gusting 8 16.7
2015-Aug-02 10:52 16.7
2015-Aug-02 10:47 135 6 gusting 8 16.7
2015-Aug-02 10:42 180 5 gusting 8 16.7
2015-Aug-02 10:37 180 6 gusting 8 16.7
2015-Aug-02 10:32 135 6 gusting 9 16.7
2015-Aug-02 10:27 158 4 gusting 9 16.1
2015-Aug-02 10:22 135 5 gusting 9 16.1
2015-Aug-02 10:17 180 6 gusting 9 16.1
2015-Aug-02 10:12 135 5 gusting 9 16.1
2015-Aug-02 10:07 135 4 gusting 10 15.6
2015-Aug-02 10:02 135 5 gusting 10 15.6
2015-Aug-02 09:57 135 5 gusting 10 15.6
2015-Aug-02 09:52 158 5 gusting 10 15.6
2015-Aug-02 09:47 180 4 gusting 9 15.6
2015-Aug-02 09:42 158 4 gusting 9 15.0
2015-Aug-02 09:37 180 4 gusting 9 15.0
2015-Aug-02 09:32 135 4 gusting 7 15.0
2015-Aug-02 09:27 158 3 gusting 5 15.0
2015-Aug-02 09:22 158 1 gusting 1 15.0
2015-Aug-02 09:17 180 1 gusting 2 15.0
2015-Aug-02 09:12 158 1 gusting 2 15.0
2015-Aug-02 09:07 090 1 gusting 3 15.0
2015-Aug-02 09:02 090 1 gusting 3 15.0
2015-Aug-02 08:57 158 0 gusting 4 14.4
2015-Aug-02 08:52 158 1 gusting 4 14.4
2015-Aug-02 08:47 090 1 gusting 3 14.4
2015-Aug-02 08:42 158 0 gusting 3 14.4
2015-Aug-02 08:37 135 1 gusting 3 14.4
2015-Aug-02 08:32 113 1 gusting 6 14.4
2015-Aug-02 08:27 158 2 gusting 6 14.4
2015-Aug-02 08:22 180 3 gusting 6 14.4
2015-Aug-02 08:17 135 2 gusting 4 14.4
2015-Aug-02 08:12 135 1 gusting 3 14.4
2015-Aug-02 08:07 180 2 gusting 6 14.4
2015-Aug-02 08:02 158 2 gusting 6 14.4
2015-Aug-02 07:57 180 2 gusting 6 14.4
2015-Aug-02 07:52 180 3 gusting 6 14.4
2015-Aug-02 07:47 135 3 gusting 5 14.4
2015-Aug-02 07:42 158 2 gusting 5 14.4
2015-Aug-02 07:37 135 2 gusting 5 14.4
2015-Aug-02 07:32 180 1 gusting 6 14.4
2015-Aug-02 07:27 135 1 gusting 6 14.4
2015-Aug-02 07:22 113 1 gusting 6 14.4
2015-Aug-02 07:17 158 2 gusting 4 14.4
2015-Aug-02 07:12 135 2 gusting 4 14.4
2015-Aug-02 07:07 158 2 gusting 6 14.4
2015-Aug-02 07:02 135 2 gusting 6 14.4
2015-Aug-02 06:57 158 3 gusting 6 14.4
2015-Aug-02 06:52 180 3 gusting 6 14.4
2015-Aug-02 06:47 113 3 gusting 6 14.4
2015-Aug-02 06:42 135 4 gusting 6 14.4
2015-Aug-02 06:37 180 4 gusting 6 14.4
2015-Aug-02 06:32 113 2 gusting 6 14.4
2015-Aug-02 06:27 180 2 gusting 6 14.4
2015-Aug-02 06:22 180 3 gusting 6 14.4
2015-Aug-02 06:17 225 3 gusting 6 14.4
2015-Aug-02 06:12 180 2 gusting 6 14.4
2015-Aug-02 06:07 338 2 gusting 6 14.4
2015-Aug-02 06:02 180 3 gusting 5 14.4
2015-Aug-02 05:57 158 2 gusting 6 13.9
2015-Aug-02 05:52 180 2 gusting 6 13.9
2015-Aug-02 05:47 135 3 gusting 5 13.9
2015-Aug-02 05:42 180 2 gusting 5 13.9
2015-Aug-02 05:37 180 3 gusting 6 13.9
2015-Aug-02 05:32 158 3 gusting 6 13.9
2015-Aug-02 05:27 180 3 gusting 6 13.9
2015-Aug-02 05:22 180 3 gusting 7 13.9
2015-Aug-02 05:17 180 3 gusting 7 13.9
2015-Aug-02 05:12 158 3 gusting 7 13.9
2015-Aug-02 05:07 158 4 gusting 8 13.9
2015-Aug-02 05:02 158 4 gusting 8 13.9
2015-Aug-02 04:57 180 4 gusting 8 13.9
2015-Aug-02 04:52 158 3 gusting 6 13.9
2015-Aug-02 04:47 180 3 gusting 8 13.3
2015-Aug-02 04:42 158 4 gusting 8 13.9
2015-Aug-02 04:37 180 4 gusting 8 13.3
2015-Aug-02 04:32 135 5 gusting 7 13.3
2015-Aug-02 04:27 180 4 gusting 6 13.3
2015-Aug-02 04:22 135 3 gusting 7 13.3
2015-Aug-02 04:17 180 3 gusting 7 13.3
2015-Aug-02 04:12 158 4 gusting 7 13.3
2015-Aug-02 04:07 158 4 gusting 6 13.3
2015-Aug-02 04:02 158 3 gusting 7 13.3
2015-Aug-02 03:57 158 3 gusting 7 13.3
2015-Aug-02 03:52 158 4 gusting 7 13.3
2015-Aug-02 03:47 158 4 gusting 7 13.3
2015-Aug-02 03:42 113 4 gusting 7 13.3
2015-Aug-02 03:37 158 4 gusting 5 13.3
2015-Aug-02 03:32 158 3 gusting 6 13.3
2015-Aug-02 03:27 113 3 gusting 6 13.3
2015-Aug-02 03:22 158 4 gusting 6 13.3
2015-Aug-02 03:17 135 4 gusting 6 13.3
2015-Aug-02 03:12 158 3 gusting 6 13.3
2015-Aug-02 03:07 158 3 gusting 6 13.3
2015-Aug-02 03:02 158 3 gusting 6 13.3
2015-Aug-02 02:57 158 3 gusting 6 13.3
2015-Aug-02 02:52 158 3 gusting 6 13.3
2015-Aug-02 02:47 113 2 gusting 4 13.3
2015-Aug-02 02:42 158 2 gusting 4 13.3
2015-Aug-02 02:37 045 2 gusting 4 13.3
2015-Aug-02 02:32 135 1 gusting 4 13.3
2015-Aug-02 02:27 113 0 gusting 3 13.3
2015-Aug-02 02:22 135 0 gusting 3 13.3
2015-Aug-02 02:17 113 0 gusting 3 13.3
2015-Aug-02 02:12 158 0 gusting 1 13.3
2015-Aug-02 02:07 113 0 gusting 0 13.3
2015-Aug-02 02:02 113 13.3
2015-Aug-02 01:57 113 13.3
2015-Aug-02 01:52 113 13.3
2015-Aug-02 01:47 113 0 gusting 2 13.3
2015-Aug-02 01:42 135 0 gusting 2 13.3
2015-Aug-02 01:37 135 13.3
2015-Aug-02 01:32 113 0 gusting 1 13.3
2015-Aug-02 01:27 158 0 gusting 1 13.3
2015-Aug-02 01:22 135 0 gusting 2 13.3
2015-Aug-02 01:17 158 0 gusting 2 13.3
2015-Aug-02 01:12 068 0 gusting 2 13.3
2015-Aug-02 01:07 113 13.3
2015-Aug-02 01:02 113 0 gusting 5 13.3
2015-Aug-02 00:57 158 1 gusting 5 13.3
2015-Aug-02 00:52 180 1 gusting 5 13.3
2015-Aug-02 00:47 180 2 gusting 4 13.3
2015-Aug-02 00:42 158 2 gusting 4 13.3
2015-Aug-02 00:37 158 2 gusting 3 13.3
2015-Aug-02 00:32 158 2 gusting 3 13.3
2015-Aug-02 00:27 158 2 gusting 4 13.3
2015-Aug-02 00:22 180 2 gusting 4 13.3
2015-Aug-02 00:17 180 2 gusting 4 13.3
2015-Aug-02 00:12 135 1 gusting 4 13.3
2015-Aug-02 00:07 135 1 gusting 4 13.3
2015-Aug-02 00:02 135 1 gusting 4 13.3
2015-Aug-01 23:57 135 2 gusting 3 13.3
2015-Aug-01 23:52 158 2 gusting 6 13.3
2015-Aug-01 23:47 135 3 gusting 6 13.3
2015-Aug-01 23:42 135 3 gusting 6 13.3
2015-Aug-01 23:37 135 3 gusting 9 13.3
2015-Aug-01 23:32 135 3 gusting 9 13.3
2015-Aug-01 23:27 158 2 gusting 9 13.3
2015-Aug-01 23:22 180 2 gusting 5 13.3
2015-Aug-01 23:17 113 2 gusting 5 12.8
2015-Aug-01 23:12 180 1 gusting 5 13.3
2015-Aug-01 23:07 180 2 gusting 4 12.8
2015-Aug-01 23:02 248 2 gusting 4 12.8
2015-Aug-01 22:57 135 2 gusting 3 13.3
2015-Aug-01 22:52 158 2 gusting 3 13.3
2015-Aug-01 22:47 045 2 gusting 4 13.3
2015-Aug-01 22:42 158 2 gusting 4 13.3
2015-Aug-01 22:37 180 1 gusting 2 13.3
2015-Aug-01 22:32 135 1 gusting 3 12.8
2015-Aug-01 22:27 158 1 gusting 3 12.8
2015-Aug-01 22:22 158 1 gusting 3 12.8
2015-Aug-01 22:17 158 1 gusting 4 13.3
2015-Aug-01 22:12 158 1 gusting 4 13.3
2015-Aug-01 22:07 135 1 gusting 4 13.3
2015-Aug-01 22:02 180 2 gusting 3 13.3
2015-Aug-01 21:57 135 2 gusting 3 13.3
2015-Aug-01 21:52 180 1 gusting 3 13.3
2015-Aug-01 21:47 180 1 gusting 3 13.3
2015-Aug-01 21:42 158 1 gusting 4 13.3
2015-Aug-01 21:37 158 1 gusting 4 13.3
2015-Aug-01 21:32 135 1 gusting 4 13.3
2015-Aug-01 21:27 180 1 gusting 3 13.3
2015-Aug-01 21:22 203 0 gusting 3 13.3
2015-Aug-01 21:17 158 0 gusting 3 13.3
2015-Aug-01 21:12 180 1 gusting 4 13.9
2015-Aug-01 21:07 180 1 gusting 4 13.9